Showing default

GRACE-FO 1, 43476

Orbit data source: Space-Track

GRACE-FO 1, 43476 is an American payload satellite in LEO that was launched on Tue, 22 May 2018 UTC via an FALCON 9 launch vehicle from the Air Force Western Test Range (AFWTR). Payload-class satellites include a variety of spacecraft equipped with specific instruments for various scientific and technological missions. These include communications satellites like Starlink; space stations such as the ISS; scientific satellites like the Hubble; Earth observation satellites from companies like Planet Labs, Umbra, and HawkEye 360; GPS; miniature CubeSats for education and research; and military/defense satellites.

Loading next visibility...
Identifier
43476, 2018-047A
Orbit
LEO
Country
Flag of USUS
Related business
Manufacturer
ADS/Bremen
Mission
Operational Civil Science
Bus & Motor
FLEXBUS, N2 AOCS
Mass
600 kg wet, ~500 kg dry
Launch date (UTC)
2018-05-22 (7 years ago)
Launch vehicle
FALCON 9
Launch site
Air Force Western Test Range (AFWTR)
Object type
Payload
Rocket body
Debris
Shape & HBR
Half Hex Poly, 1.9 m
Radar Cross Section
5.603 m², Medium (>0.1 m² and < 1m²)

Expand to show TLE details & history
Last TLE update: 8 hours ago

TLE from 8 hours ago
0 GRACE-FO 1
1 43476U 18047A   25315.28662572  .00007362  00000-0  20834-3 0  9996
2 43476  88.9864 227.9646 0008583 231.1485 128.9004 15.36118935416325
Epoch: 2025-11-11T06:52Z
TLE epoch observation values (Epoch: 2025-11-11T06:52:44.462Z)
Latitude
Longitude
74.10399°
Altitude
464.505 km
Speed
7.632 km/s
True Right ascension
15h 11m 51s
True Declination
0° 00' 00"
Sunlit
Object was in daylight at epoch
Visualization orbit readout
Latitude
Unknown
Longitude
Unknown
Altitude
Unknown
Speed
Unknown
Apparent Right ascension
Unknown
Apparent Declination
Unknown
Sunlit
N/A
Visualization observer readout
Local Sidereal Time
11:18:16
Azimuth
Unknown
Elevation
Unknown
Doppler factor
Unknown
Orbital elements
Apogee altitude
460.25 km
Perigee altitude
448.522 km
Semi-major axis
6,832.523 km
Eccentricity
0.00086
Inclination
88.9864°
RAAN
227.9646°
Arg. of periapsis
231.1485°
True anomaly
128.97689°
Mean anomaly
128.9004°
Eccentric anomaly
128.93865°
Mean motion
3.84301 °/min
Orbital period
93.68 mins
BSTAR
0.00020834
Loading maneuver chart data...
Computing Atmospheric mass density...
Loading historical data...
Loading historical data...
Loading historical data...
Loading historical data...
Loading historical data...
Loading historical data...
Loading historical data...

Documentation

Showing up to 5 results
|